Location: Salillas
(41.9950°N, 0.2228°W)
Time: 01:53:03
(UTC+00:00)

ISS - Pass Details

Date: 29 March 2020
Orbit: 417 x 420 km, 51.6° (Epoch: 06 June)

Event Time Altitude Azimuth Distance (km) Brightness Sun altitude
Rises 21:08:59 0° 307° (NW) 2,364 1.3 -29.2°
Reaches altitude 10° 21:11:10 10° 314° (NW) 1,497 0.0 -29.5°
Enters shadow 21:11:55 15° 319° (NW) 1,209 -0.7 -29.6°
